Location: ?????oe
(44.4874°N, 135.7046°E)
Time: 02:47:02
(UTC+00:00)

NOSS 3-1 (A) - Pass Details

Date: 13 December 2025
Orbit: 613 x 1593 km, 63.4° (Epoch: 10 January)

Event Time Altitude Azimuth Distance (km) Brightness Sun altitude
Exits shadow 20:39:48 24° 305° (NW) 2,284 4.9 -18.1°
Maximum altitude 20:44:25 52° 241° (WSW) 1,623 4.3 -17.3°
Drops below altitude 10° 20:53:10 10° 169° (SSE) 3,668 6.9 -15.8°
Sets 20:56:27 0° 164° (SSE) 4,715 7.5 -15.2°
